Volver al catálogo

STARLINK-30936

ActivoComunicacionesVLEO
NORAD 58534·PAYLOAD·🇺🇸 United States

Lanzado Dec 8, 2023 desde Vandenberg Space Force Base

Loading…

Próximos Pases (próximas 24 horas)

TLE

ActualizadoSource: CelesTrak SupGP

Época: Sep 14, 2026, 20:51 UTC

1 58534C 23192D   26257.86923611  .00048205  00000+0  15503-2 0  2571
2 58534  53.1575 252.6892 0001321  96.0693 119.7886 15.31674915    10

Sigue STARLINK-30936 en tiempo real con AllMySat

Download on the App Store